EW4727 Weather Reports


time (UTC)temp
C
wind
direction
speed
KPH
gust
KPH
rain 1hr
cm
rain 24hr
cm
rain mn
cm
humidity
%
barometer
mb
20181209231705 11 107 1.6 9.7 0.00 0.18 0.15 100 1030.6
20181209230705 11 101 3.2 4.8 0.00 0.18 0.15 100 1030.6
20181209225704 11 67 1.6 3.2 0.00 0.18 0.15 100 1030.5
20181209224705 11 65 0.0 0.0 0.00 0.18 0.15 100 1030.4
20181209223704 11 64 0.0 0.0 0.00 0.18 0.15 100 1030.5
20181209222704 11 63 0.0 0.0 0.00 0.18 0.15 100 1030.2
20181209221704 11 63 0.0 4.8 0.00 0.18 0.15 100 1030.3
20181209220704 11 63 3.2 4.8 0.00 0.18 0.15 100 1030.3
20181209215705 12 59 0.0 4.8 0.03 0.18 0.15 100 1030.2
20181209205715 12 14 0.0 14.5 0.00 0.15 0.15 100 1030.3
20181209155714 15 333 1.6 9.7 0.00 0.15 0.08 95 1029.8
20181209153711 15 324 1.6 12.9 0.03 0.15 0.08 95 1030.0
20181209152704 15 14 3.2 16.1 0.03 0.15 0.08 94 1029.7
20181209151704 15 328 8.0 14.5 0.03 0.15 0.08 94 1029.7
20181209150704 15 359 3.2 14.5 0.03 0.15 0.08 94 1029.8
20181209145704 16 346 3.2 12.9 0.03 0.15 0.08 94 1029.8
20181209144704 16 337 4.8 14.5 0.03 0.15 0.08 93 1029.8
20181209143704 16 315 3.2 12.9 0.00 0.13 0.05 93 1029.9
20181209142704 16 342 3.2 12.9 0.00 0.13 0.05 92 1030.0
20181209141704 16 348 1.6 12.9 0.00 0.13 0.05 93 1030.3
20181209140704 16 333 4.8 12.9 0.00 0.13 0.05 93 1030.3
20181209135704 16 346 1.6 14.5 0.00 0.13 0.05 93 1030.4
20181209134704 15 325 3.2 14.5 0.03 0.13 0.05 93 1030.5
20181209133704 15 324 8.0 16.1 0.03 0.13 0.05 93 1030.6
20181209132705 15 328 4.8 14.5 0.03 0.13 0.05 93 1030.7
20181209131704 16 324 3.2 9.7 0.03 0.13 0.05 91 1030.8
20181209130704 16 339 1.6 4.8 0.03 0.13 0.05 90 1030.9
20181209125705 16 26 0.0 0.0 0.03 0.13 0.05 89 1031.1
20181209124704 16 26 0.0 4.8 0.00 0.10 0.05 90 1031.1
20181209123705 16 30 0.0 4.8 0.00 0.10 0.05 91 1031.3
20181209122706 15 5 0.0 0.0 0.00 0.10 0.05 92 1031.6
20181209121704 15 344 1.6 8.0 0.00 0.10 0.05 92 1031.4
20181209120704 15 328 3.2 11.3 0.00 0.13 0.05 91 1031.7
20181209115704 14 5 0.0 11.3 0.00 0.13 0.05 91 1031.9
20181209114704 14 316 0.0 12.9 0.00 0.13 0.05 91 1032.0
20181209055715 8 60 0.0 4.8 0.00 0.13 0.03 100 1031.9
20181209053712 7 57 3.2 8.0 0.00 0.13 0.03 100 1031.9
20181209052706 7 99 1.6 4.8 0.00 0.13 0.03 100 1031.9
20181209051705 7 103 0.0 0.0 0.00 0.13 0.03 100 1031.8
20181209050704 7 103 0.0 0.0 0.00 0.15 0.03 100 1031.7
20181209045705 7 103 0.0 0.0 0.00 0.15 0.03 100 1031.7
20181209044705 7 103 0.0 1.6 0.00 0.15 0.03 100 1031.7
20181209043708 7 103 0.0 4.8 0.00 0.15 0.03 100 1031.7
20181209042704 7 103 1.6 9.7 0.00 0.15 0.03 100 1031.7
20181209041704 7 107 0.0 4.8 0.00 0.15 0.03 100 1031.7
20181209040704 7 112 3.2 4.8 0.00 0.15 0.03 100 1031.8
20181209035704 7 112 0.0 4.8 0.00 0.15 0.03 100 1031.7
20181209034704 7 117 4.8 11.3 0.00 0.15 0.03 100 1031.8
20181209033704 7 109 3.2 9.7 0.00 0.15 0.03 100 1031.9
20181209032705 7 96 1.6 9.7 0.00 0.15 0.03 100 1031.9
20181209031705 8 93 0.0 4.8 0.00 0.15 0.03 100 1032.1
20181209030704 8 92 0.0 4.8 0.00 0.15 0.03 100 1032.1
20181209025704 8 92 1.6 4.8 0.00 0.15 0.03 100 1032.2
20181209024705 8 92 0.0 3.2 0.03 0.15 0.03 100 1032.4
20181209023705 8 91 3.2 4.8 0.03 0.15 0.03 100 1032.4
20181209022704 8 90 0.0 0.0 0.03 0.15 0.03 100 1032.3
20181209021705 8 89 0.0 0.0 0.03 0.15 0.03 100 1032.4
20181209020705 8 89 0.0 4.8 0.03 0.15 0.03 100 1032.3
20181209015704 8 66 1.6 4.8 0.03 0.15 0.03 100 1032.2
20181209014710 8 49 0.0 0.0 0.00 0.13 0.00 100 1032.1
20181209013704 8 48 1.6 4.8 0.00 0.13 0.00 100 1032.1
20181209012704 8 47 0.0 4.8 0.00 0.13 0.00 100 1032.2
20181209011704 8 44 1.6 4.8 0.00 0.13 0.00 100 1032.1
20181209010704 8 47 3.2 8.0 0.00 0.13 0.00 100 1032.2
20181209005704 8 47 1.6 4.8 0.00 0.13 0.00 100 1032.4
20181209004704 8 56 1.6 9.7 0.00 0.13 0.00 100 1032.5
20181209003705 8 46 1.6 4.8 0.00 0.13 0.00 100 1032.5
20181209002704 8 52 1.6 8.0 0.00 0.13 0.00 100 1032.6
20181209001705 9 36 0.0 8.0 0.00 0.13 0.00 100 1032.7